CW8428 Weather Reports


Display with metric or nautical units.
time (UTC)temp
F
wind
direction
speed
MPH
gust
MPH
rain 1hr
in
rain 24hr
in
rain mn
in
humidity
%
barometer
mb
20260905165627 78 180 11.0 20.0 0.00 0.00 0.00 17 1018.7
20260905164622 78 167 12.0 20.0 0.00 0.00 0.00 16 1018.6
20260905163613 78 175 10.0 19.0 0.00 0.00 0.00 17 1018.7
20260905162625 78 187 9.0 24.0 0.00 0.00 0.00 17 1018.7
20260905161615 78 158 13.0 17.0 0.00 0.00 0.00 16 1018.5
20260905160630 77 191 9.0 15.0 0.00 0.00 0.00 20 1018.4
20260905155612 77 142 10.0 16.0 0.00 0.00 0.00 22 1018.4
20260905154623 76 134 9.0 12.0 0.00 0.00 0.00 23 1018.3
20260905153635 75 101 6.0 13.0 0.00 0.00 0.00 25 1018.3
20260905152629 73 113 3.0 7.0 0.00 0.00 0.00 28 1018.2
20260905151620 71 108 2.0 5.0 0.00 0.00 0.00 31 1018.3
20260905150631 69 22 4.0 10.0 0.00 0.00 0.00 34 1018.4
20260905145614 68 99 6.0 8.0 0.00 0.00 0.00 36 1018.4
20260905144629 67 138 3.0 4.0 0.00 0.00 0.00 36 1018.4
20260905143621 66 70 0.0 5.0 0.00 0.00 0.00 37 1018.3
20260905142612 64 24 2.0 5.0 0.00 0.00 0.00 39 1018.2
20260905141627 63 120 2.0 5.0 0.00 0.00 0.00 42 1018.3
20260905105631 71 129 3.0 7.0 0.00 0.00 0.00 27 1016.9
20260905104623 71 121 4.0 8.0 0.00 0.00 0.00 27 1016.8
20260905103612 73 142 6.0 13.0 0.00 0.00 0.00 26 1016.8
20260905102643 74 142 2.0 11.0 0.00 0.00 0.00 25 1016.7
20260905101613 74 112 8.0 13.0 0.00 0.00 0.00 25 1016.7
20260905100628 73 94 4.0 8.0 0.00 0.00 0.00 26 1016.5
20260905095631 72 109 5.0 7.0 0.00 0.00 0.00 27 1016.6
20260905094622 72 130 3.0 7.0 0.00 0.00 0.00 28 1016.6
20260905093634 73 141 2.0 9.0 0.00 0.00 0.00 28 1016.5
20260905092628 72 134 3.0 7.0 0.00 0.00 0.00 28 1016.4
20260905091619 72 94 7.0 10.0 0.00 0.00 0.00 29 1016.3
20260905090630 73 133 4.0 11.0 0.00 0.00 0.00 29 1016.2
20260905085633 73 118 5.0 9.0 0.00 0.00 0.00 29 1016.0
20260905084648 74 108 5.0 10.0 0.00 0.00 0.00 28 1016.0
20260905083618 74 112 4.0 11.0 0.00 0.00 0.00 28 1016.0
20260905082628 74 117 6.0 9.0 0.00 0.00 0.00 29 1015.9
20260905081619 74 110 5.0 9.0 0.00 0.00 0.00 29 1015.8
20260905080614 74 101 5.0 8.0 0.00 0.00 0.00 29 1015.8
20260905075617 74 107 4.0 7.0 0.00 0.00 0.00 29 1015.8
20260905074628 74 108 3.0 8.0 0.00 0.00 0.00 29 1015.7
20260905073618 74 123 3.0 8.0 0.00 0.00 0.00 29 1015.5
20260905072614 74 117 5.0 7.0 0.00 0.00 0.00 29 1015.4
20260905071626 74 114 4.0 8.0 0.00 0.00 0.00 30 1015.3
20260905070617 75 110 4.0 6.0 0.00 0.00 0.00 28 1015.1